Time,TemperatureF,DewpointF,PressureIn,WindDirection,WindDirectionDegrees,WindSpeedMPH,WindSpeedGustMPH,Humidity,HourlyPrecipIn,Conditions,Clouds,dailyrainin,SoftwareType,DateUTC
2013-04-11 00:00:00,37.0,31.1,30.03,ENE,68,9.8,10.1,79,0.00,,CLR,1.08,VWS V14.01,2013-04-11 04:00:00,
2013-04-11 00:01:00,37.0,31.1,30.03,ENE,68,9.8,9.8,79,0.00,,CLR,1.08,VWS V14.01,2013-04-11 04:01:00,
2013-04-11 00:06:00,37.0,30.8,30.03,ENE,68,9.8,9.8,78,0.00,,CLR,0.00,VWS V14.01,2013-04-11 04:06:00,
2013-04-11 00:11:00,37.0,30.8,30.03,ENE,68,9.8,9.8,78,0.00,,CLR,0.00,VWS V14.01,2013-04-11 04:11:00,
2013-04-11 00:16:00,37.0,30.8,30.03,ENE,68,9.8,9.8,78,0.00,,CLR,0.00,VWS V14.01,2013-04-11 04:16:00,
2013-04-11 00:21:00,37.0,30.8,30.03,ENE,68,9.8,9.8,78,0.00,,CLR,0.00,VWS V14.01,2013-04-11 04:21:00,
2013-04-11 00:26:00,37.2,30.7,30.03,ENE,68,9.8,9.8,77,0.00,,CLR,0.00,VWS V14.01,2013-04-11 04:26:00,
2013-04-11 00:32:00,37.2,30.7,30.03,ENE,68,9.8,9.8,77,0.00,,CLR,0.00,VWS V14.01,2013-04-11 04:32:00,
2013-04-11 00:37:00,37.2,30.7,30.03,ENE,68,9.8,9.8,77,0.00,,CLR,0.00,VWS V14.01,2013-04-11 04:37:00,
2013-04-11 00:42:00,37.4,30.5,30.03,ENE,68,9.8,9.8,76,0.00,,CLR,0.00,VWS V14.01,2013-04-11 04:42:00,
2013-04-11 00:47:00,37.4,30.5,30.06,ENE,68,9.8,9.8,76,0.00,,CLR,0.00,VWS V14.01,2013-04-11 04:47:00,
2013-04-11 00:52:00,37.4,30.5,30.06,ENE,68,9.8,9.8,76,0.00,,CLR,0.00,VWS V14.01,2013-04-11 04:52:00,
2013-04-11 00:57:00,37.2,31.0,30.06,ENE,68,9.8,9.8,78,0.00,,CLR,0.00,VWS V14.01,2013-04-11 04:57:00,
2013-04-11 01:00:00,37.0,30.5,30.03,ENE,68,9.8,9.8,77,0.00,,CLR,0.00,VWS V14.01,2013-04-11 05:00:00,
2013-04-11 01:02:00,37.2,31.0,30.03,ENE,68,9.8,9.8,78,0.00,,CLR,0.00,VWS V14.01,2013-04-11 05:02:00,
2013-04-11 01:07:00,37.2,31.0,30.03,ENE,68,9.8,9.8,78,0.00,,CLR,0.00,VWS V14.01,2013-04-11 05:07:00,
2013-04-11 01:12:00,37.0,30.5,30.03,ENE,68,9.8,9.8,77,0.00,,CLR,0.00,VWS V14.01,2013-04-11 05:12:00,
2013-04-11 01:17:00,37.0,30.8,30.03,ENE,68,9.8,9.8,78,0.00,,CLR,0.00,VWS V14.01,2013-04-11 05:17:00,
2013-04-11 01:22:00,37.0,30.8,30.03,ENE,68,9.8,9.8,78,0.00,,CLR,0.00,VWS V14.01,2013-04-11 05:22:00,
2013-04-11 01:27:00,37.0,30.8,30.03,ENE,68,9.8,9.8,78,0.00,,CLR,0.00,VWS V14.01,2013-04-11 05:27:00,
2013-04-11 01:32:00,37.2,31.0,30.03,ENE,68,9.8,9.8,78,0.00,,CLR,0.00,VWS V14.01,2013-04-11 05:32:00,
2013-04-11 01:37:00,37.2,31.0,30.03,ENE,68,9.8,9.8,78,0.00,,CLR,2.90,VWS V14.01,2013-04-11 05:37:00,
2013-04-11 01:42:00,37.2,31.3,30.03,ENE,68,9.8,9.8,79,0.00,,CLR,2.90,VWS V14.01,2013-04-11 05:42:00,
2013-04-11 01:47:00,37.2,31.0,30.00,ENE,68,9.8,9.8,78,0.00,,CLR,2.90,VWS V14.01,2013-04-11 05:47:00,
2013-04-11 01:52:00,37.2,31.0,30.00,ENE,68,11.0,11.0,78,0.00,,CLR,2.90,VWS V14.01,2013-04-11 05:52:00,
2013-04-11 01:57:00,37.4,31.2,30.00,ENE,68,11.0,11.0,78,0.00,,CLR,2.90,VWS V14.01,2013-04-11 05:57:00,
2013-04-11 02:00:00,37.4,31.2,30.03,ENE,68,11.0,11.0,78,0.00,,CLR,2.90,VWS V14.01,2013-04-11 06:00:00,
2013-04-11 02:03:00,37.4,31.2,30.03,ENE,68,11.0,11.0,78,0.00,,CLR,2.90,VWS V14.01,2013-04-11 06:03:00,
2013-04-11 02:08:00,37.4,30.9,30.03,ENE,68,11.0,11.0,77,0.00,,CLR,2.90,VWS V14.01,2013-04-11 06:08:00,
2013-04-11 02:13:00,37.4,31.2,30.03,ENE,68,11.0,11.0,78,0.00,,CLR,0.00,VWS V14.01,2013-04-11 06:13:00,
2013-04-11 02:18:00,37.4,30.9,30.03,ENE,68,10.3,11.0,77,0.00,,CLR,0.00,VWS V14.01,2013-04-11 06:18:00,
2013-04-11 02:23:00,37.4,31.2,30.03,ENE,68,10.3,11.0,78,0.00,,CLR,0.00,VWS V14.01,2013-04-11 06:23:00,
2013-04-11 02:28:00,37.4,30.9,30.03,ENE,68,10.3,11.0,77,0.00,,CLR,0.00,VWS V14.01,2013-04-11 06:28:00,
2013-04-11 02:33:00,37.6,31.0,30.03,ENE,68,10.3,11.0,77,0.00,,CLR,0.00,VWS V14.01,2013-04-11 06:33:00,
2013-04-11 02:38:00,37.6,31.0,30.03,ENE,68,10.3,11.0,77,0.00,,CLR,2.90,VWS V14.01,2013-04-11 06:38:00,
2013-04-11 02:43:00,37.6,31.0,30.03,SSE,158,4.0,11.0,77,0.00,,CLR,2.90,VWS V14.01,2013-04-11 06:43:00,
2013-04-11 02:48:00,37.6,31.0,30.09,SSE,158,4.0,11.0,77,0.00,,CLR,2.90,VWS V14.01,2013-04-11 06:48:00,
2013-04-11 02:53:00,37.6,31.0,30.09,SSE,158,4.0,11.0,77,0.00,,CLR,2.90,VWS V14.01,2013-04-11 06:53:00,
2013-04-11 02:58:00,37.6,31.4,30.09,SSE,158,4.0,11.0,78,0.00,,CLR,2.90,VWS V14.01,2013-04-11 06:58:00,
2013-04-11 03:00:00,37.4,31.8,30.03,SSE,158,4.0,11.0,80,0.00,,CLR,0.00,VWS V14.01,2013-04-11 07:00:00,
2013-04-11 03:03:00,37.4,32.1,30.03,SSE,158,4.0,4.0,81,0.00,,CLR,2.90,VWS V14.01,2013-04-11 07:03:00,
2013-04-11 03:08:00,37.2,32.5,30.03,SSE,158,4.0,4.0,83,0.00,,CLR,2.90,VWS V14.01,2013-04-11 07:08:00,
2013-04-11 03:13:00,37.0,32.7,30.03,SSE,158,4.0,4.0,84,0.05,,CLR,2.95,VWS V14.01,2013-04-11 07:13:00,
2013-04-11 03:18:00,36.9,32.8,29.97,SSE,158,4.0,4.0,85,0.05,,CLR,2.95,VWS V14.01,2013-04-11 07:18:00,
2013-04-11 03:23:00,36.7,32.9,29.97,SSE,158,4.0,4.0,86,0.05,,CLR,2.95,VWS V14.01,2013-04-11 07:23:00,
2013-04-11 03:30:00,36.7,33.5,29.97,ENE,68,12.1,12.1,88,0.09,,CLR,0.09,VWS V14.01,2013-04-11 07:30:00,
2013-04-11 03:35:00,36.7,33.5,29.97,ENE,68,12.1,12.1,88,0.09,,CLR,0.09,VWS V14.01,2013-04-11 07:35:00,
2013-04-11 03:40:00,36.7,33.5,29.97,ENE,68,12.1,12.1,88,0.09,,CLR,0.09,VWS V14.01,2013-04-11 07:40:00,
2013-04-11 03:45:00,36.7,33.5,29.97,ENE,68,12.1,12.1,88,0.13,,CLR,0.13,VWS V14.01,2013-04-11 07:45:00,
2013-04-11 03:50:00,36.5,33.3,29.97,ENE,68,12.1,12.1,88,0.13,,CLR,0.13,VWS V14.01,2013-04-11 07:50:00,
2013-04-11 03:55:00,36.5,33.3,29.97,ENE,68,12.1,12.1,88,0.13,,CLR,0.13,VWS V14.01,2013-04-11 07:55:00,
2013-04-11 04:00:00,36.5,33.6,29.97,ENE,68,12.1,12.1,89,0.17,,CLR,0.17,VWS V14.01,2013-04-11 08:00:00,
2013-04-11 04:05:00,36.5,33.6,29.97,ENE,68,12.1,12.1,89,0.17,,CLR,0.17,VWS V14.01,2013-04-11 08:05:00,
2013-04-11 04:10:00,36.5,33.8,29.97,ENE,68,12.1,12.1,90,0.12,,CLR,0.21,VWS V14.01,2013-04-11 08:10:00,
2013-04-11 04:15:00,36.5,34.4,30.00,ENE,68,12.1,12.1,92,0.12,,CLR,0.21,VWS V14.01,2013-04-11 08:15:00,
2013-04-11 04:20:00,36.3,34.5,30.00,ENE,68,12.1,12.1,93,0.16,,CLR,0.25,VWS V14.01,2013-04-11 08:20:00,
2013-04-11 04:25:00,36.3,34.8,30.00,ENE,68,12.1,12.1,94,0.20,,CLR,0.29,VWS V14.01,2013-04-11 08:25:00,
2013-04-11 04:30:00,36.3,34.8,30.00,ENE,68,12.1,12.1,94,0.20,,CLR,0.29,VWS V14.01,2013-04-11 08:30:00,
2013-04-11 04:35:00,36.3,35.0,30.00,ENE,68,12.1,12.1,95,0.25,,CLR,0.34,VWS V14.01,2013-04-11 08:35:00,
2013-04-11 04:40:00,36.3,35.0,30.00,ENE,68,12.1,12.1,95,0.25,,CLR,0.34,VWS V14.01,2013-04-11 08:40:00,
2013-04-11 04:45:00,36.3,35.0,30.03,ENE,68,12.1,12.1,95,0.29,,CLR,0.38,VWS V14.01,2013-04-11 08:45:00,
2013-04-11 04:50:00,36.1,35.1,30.03,ENE,68,12.1,12.1,96,0.25,,CLR,0.38,VWS V14.01,2013-04-11 08:50:00,
2013-04-11 04:55:00,36.1,35.1,30.03,ENE,68,12.1,12.1,96,0.29,,CLR,0.42,VWS V14.01,2013-04-11 08:55:00,
2013-04-11 05:00:00,36.1,35.4,30.00,ENE,68,12.1,12.1,97,0.29,,CLR,0.42,VWS V14.01,2013-04-11 09:00:00,
2013-04-11 05:05:00,36.1,35.4,30.00,ENE,68,12.1,12.1,97,0.25,,CLR,0.42,VWS V14.01,2013-04-11 09:05:00,
2013-04-11 05:10:00,36.1,35.4,30.00,ENE,68,12.1,12.1,97,0.25,,CLR,0.42,VWS V14.01,2013-04-11 09:10:00,
2013-04-11 05:15:00,36.1,35.4,30.00,ENE,68,12.1,12.1,97,0.21,,CLR,0.42,VWS V14.01,2013-04-11 09:15:00,
2013-04-11 05:20:00,36.0,35.2,30.00,ENE,68,12.1,12.1,97,0.21,,CLR,0.42,VWS V14.01,2013-04-11 09:20:00,
2013-04-11 05:25:00,36.0,35.2,30.00,ENE,68,12.1,12.1,97,0.17,,CLR,0.42,VWS V14.01,2013-04-11 09:25:00,
2013-04-11 05:30:00,35.8,35.0,29.97,ENE,68,12.1,12.1,97,0.13,,CLR,0.42,VWS V14.01,2013-04-11 09:30:00,
2013-04-11 05:35:00,35.8,34.8,29.97,ENE,68,12.1,12.1,96,0.17,,CLR,0.46,VWS V14.01,2013-04-11 09:35:00,
2013-04-11 05:40:00,35.8,34.8,29.97,ENE,68,12.1,12.1,96,0.12,,CLR,0.46,VWS V14.01,2013-04-11 09:40:00,
2013-04-11 05:45:00,35.8,34.5,29.97,ENE,68,12.1,12.1,95,0.12,,CLR,0.46,VWS V14.01,2013-04-11 09:45:00,
2013-04-11 05:50:00,35.6,34.3,29.97,ENE,68,12.1,12.1,95,0.08,,CLR,0.46,VWS V14.01,2013-04-11 09:50:00,
2013-04-11 05:55:00,35.6,34.3,29.97,ENE,68,12.1,12.1,95,0.08,,CLR,0.46,VWS V14.01,2013-04-11 09:55:00,
2013-04-11 06:00:00,35.6,34.0,29.97,ENE,68,12.1,12.1,94,0.04,,CLR,0.46,VWS V14.01,2013-04-11 10:00:00,
2013-04-11 06:05:00,35.4,33.9,29.97,ENE,68,12.1,12.1,94,0.04,,CLR,0.46,VWS V14.01,2013-04-11 10:05:00,
2013-04-11 06:10:00,35.4,33.9,29.97,ENE,68,12.1,12.1,94,0.04,,CLR,0.46,VWS V14.01,2013-04-11 10:10:00,
2013-04-11 06:15:00,35.4,33.9,29.97,ENE,68,12.1,12.1,94,0.08,,CLR,0.50,VWS V14.01,2013-04-11 10:15:00,
2013-04-11 06:20:00,35.4,33.6,29.97,ENE,68,12.1,12.1,93,0.08,,CLR,0.50,VWS V14.01,2013-04-11 10:20:00,
2013-04-11 06:25:00,35.2,33.4,29.97,ENE,68,12.1,12.1,93,0.08,,CLR,0.50,VWS V14.01,2013-04-11 10:25:00,
2013-04-11 06:30:00,35.2,33.4,29.97,ENE,68,12.1,12.1,93,0.08,,CLR,0.50,VWS V14.01,2013-04-11 10:30:00,
2013-04-11 06:35:00,35.2,33.4,29.97,ENE,68,12.1,12.1,93,0.08,,CLR,0.50,VWS V14.01,2013-04-11 10:35:00,
2013-04-11 06:40:00,35.2,33.4,29.97,ENE,68,12.1,12.1,93,0.04,,CLR,0.50,VWS V14.01,2013-04-11 10:40:00,
2013-04-11 06:50:00,35.1,33.2,29.97,ENE,68,12.1,12.1,93,0.04,,CLR,0.50,VWS V14.01,2013-04-11 10:50:00,
2013-04-11 06:58:00,35.1,33.2,29.97,ENE,68,12.1,12.1,93,0.04,,CLR,0.50,VWS V14.01,2013-04-11 10:58:00,
2013-04-11 07:00:00,35.1,33.2,29.94,ENE,68,12.1,12.1,93,0.04,,CLR,0.50,VWS V14.01,2013-04-11 11:00:00,
2013-04-11 07:03:00,34.9,33.1,29.94,ENE,68,12.1,12.1,93,0.04,,CLR,0.50,VWS V14.01,2013-04-11 11:03:00,
2013-04-11 07:08:00,34.9,33.1,29.94,ENE,68,12.1,12.1,93,0.04,,CLR,0.50,VWS V14.01,2013-04-11 11:08:00,
2013-04-11 07:13:00,34.9,33.1,29.94,ENE,68,23.0,23.0,93,0.04,,CLR,0.50,VWS V14.01,2013-04-11 11:13:00,
2013-04-11 07:18:00,34.7,33.2,29.88,ENE,68,23.0,23.0,94,0.04,,CLR,0.50,VWS V14.01,2013-04-11 11:18:00,
2013-04-11 07:24:00,34.9,33.3,29.88,ENE,68,23.0,23.0,94,0.04,,CLR,0.50,VWS V14.01,2013-04-11 11:24:00,
2013-04-11 07:29:00,34.9,33.1,29.88,ENE,68,23.0,23.0,93,0.04,,CLR,0.50,VWS V14.01,2013-04-11 11:29:00,
2013-04-11 07:34:00,34.9,32.8,29.97,ENE,68,23.0,23.0,92,0.04,,CLR,0.50,VWS V14.01,2013-04-11 11:34:00,
2013-04-11 07:39:00,34.9,32.5,29.97,ENE,68,23.0,23.0,91,0.04,,CLR,0.50,VWS V14.01,2013-04-11 11:39:00,
2013-04-11 07:44:00,35.1,32.4,29.97,ENE,68,23.0,23.0,90,0.04,,CLR,0.50,VWS V14.01,2013-04-11 11:44:00,
2013-04-11 07:49:00,35.1,32.2,30.03,ENE,68,23.0,23.0,89,0.04,,CLR,0.50,VWS V14.01,2013-04-11 11:49:00,
2013-04-11 07:54:00,35.1,32.2,30.03,ENE,68,23.0,23.0,89,0.04,,CLR,0.50,VWS V14.01,2013-04-11 11:54:00,
2013-04-11 07:59:00,35.1,32.2,30.03,ENE,68,23.0,23.0,89,0.04,,CLR,0.50,VWS V14.01,2013-04-11 11:59:00,
2013-04-11 08:00:00,35.1,32.2,30.03,ENE,68,23.0,23.0,89,0.04,,CLR,0.50,VWS V14.01,2013-04-11 12:00:00,
2013-04-11 08:04:00,35.1,32.2,30.03,ENE,68,23.0,23.0,89,0.00,,CLR,0.50,VWS V14.01,2013-04-11 12:04:00,
2013-04-11 08:09:00,35.1,32.4,30.03,ENE,68,23.0,23.0,90,0.00,,CLR,0.50,VWS V14.01,2013-04-11 12:09:00,
2013-04-11 08:15:00,34.9,32.8,30.03,ENE,68,23.0,23.0,92,0.00,,CLR,0.50,VWS V14.01,2013-04-11 12:15:00,
2013-04-11 08:20:00,34.9,32.8,30.03,ENE,68,23.0,23.0,92,0.04,,CLR,0.54,VWS V14.01,2013-04-11 12:20:00,
2013-04-11 08:25:00,34.9,33.1,30.03,ENE,68,23.0,23.0,93,0.04,,CLR,0.54,VWS V14.01,2013-04-11 12:25:00,
2013-04-11 08:30:00,34.9,33.1,30.03,ENE,68,23.0,23.0,93,0.04,,CLR,0.54,VWS V14.01,2013-04-11 12:30:00,
2013-04-11 08:35:00,34.9,33.3,30.00,ENE,68,23.0,23.0,94,0.04,,CLR,0.54,VWS V14.01,2013-04-11 12:35:00,
2013-04-11 08:40:00,34.9,33.3,30.00,ENE,68,23.0,23.0,94,0.04,,CLR,0.54,VWS V14.01,2013-04-11 12:40:00,
2013-04-11 08:45:00,34.9,33.3,30.00,ENE,68,23.0,23.0,94,0.04,,CLR,0.54,VWS V14.01,2013-04-11 12:45:00,
2013-04-11 08:50:00,34.9,33.3,30.00,ENE,68,23.0,23.0,94,0.04,,CLR,0.54,VWS V14.01,2013-04-11 12:50:00,
2013-04-11 08:55:00,35.1,33.5,30.00,ENE,68,23.0,23.0,94,0.04,,CLR,0.54,VWS V14.01,2013-04-11 12:55:00,
2013-04-11 09:00:00,35.1,33.8,30.00,ENE,68,23.0,23.0,95,0.04,,CLR,0.54,VWS V14.01,2013-04-11 13:00:00,
2013-04-11 09:05:00,35.1,33.8,30.00,ENE,68,23.0,23.0,95,0.04,,CLR,0.54,VWS V14.01,2013-04-11 13:05:00,
2013-04-11 09:10:00,35.1,33.5,30.00,ENE,68,23.0,23.0,94,0.04,,CLR,0.54,VWS V14.01,2013-04-11 13:10:00,
2013-04-11 09:15:00,35.1,33.5,30.00,ENE,68,23.0,23.0,94,0.04,,CLR,0.54,VWS V14.01,2013-04-11 13:15:00,
2013-04-11 09:20:00,35.1,33.5,30.00,ENE,68,23.0,23.0,94,0.04,,CLR,0.54,VWS V14.01,2013-04-11 13:20:00,
2013-04-11 09:26:00,35.1,33.5,30.00,ENE,68,23.0,23.0,94,0.04,,CLR,0.54,VWS V14.01,2013-04-11 13:26:00,
2013-04-11 09:31:00,35.2,33.7,30.00,ENE,68,23.0,23.0,94,0.04,,CLR,0.54,VWS V14.01,2013-04-11 13:31:00,
2013-04-11 09:36:00,35.1,33.5,30.00,ENE,68,23.0,23.0,94,0.04,,CLR,0.54,VWS V14.01,2013-04-11 13:36:00,
2013-04-11 09:41:00,35.1,33.2,30.00,ENE,68,23.0,23.0,93,0.04,,CLR,0.54,VWS V14.01,2013-04-11 13:41:00,
2013-04-11 09:46:00,35.1,33.5,30.00,ENE,68,23.0,23.0,94,0.04,,CLR,0.54,VWS V14.01,2013-04-11 13:46:00,
2013-04-11 09:52:00,35.2,34.0,29.97,ENE,68,23.0,23.0,95,0.04,,CLR,0.54,VWS V14.01,2013-04-11 13:52:00,
2013-04-11 09:57:00,35.1,33.5,29.97,ENE,68,23.0,23.0,94,0.04,,CLR,0.54,VWS V14.01,2013-04-11 13:57:00,
2013-04-11 10:00:00,35.1,33.8,29.94,ENE,68,23.0,23.0,95,0.04,,CLR,0.54,VWS V14.01,2013-04-11 14:00:00,
2013-04-11 10:02:00,35.1,33.8,29.94,ENE,68,23.0,23.0,95,0.04,,CLR,0.54,VWS V14.01,2013-04-11 14:02:00,
2013-04-11 10:08:00,35.1,33.8,29.94,ENE,68,23.0,23.0,95,0.00,,CLR,0.54,VWS V14.01,2013-04-11 14:08:00,
2013-04-11 10:13:00,35.1,33.8,29.94,ENE,68,23.0,23.0,95,0.00,,CLR,0.54,VWS V14.01,2013-04-11 14:13:00,
2013-04-11 10:18:00,35.1,34.0,29.97,ENE,68,23.0,23.0,96,0.00,,CLR,0.54,VWS V14.01,2013-04-11 14:18:00,
2013-04-11 10:23:00,35.1,34.0,29.97,ENE,68,23.0,23.0,96,0.00,,CLR,0.54,VWS V14.01,2013-04-11 14:23:00,
2013-04-11 10:28:00,35.2,34.2,29.97,ENE,68,23.0,23.0,96,0.00,,CLR,0.54,VWS V14.01,2013-04-11 14:28:00,
2013-04-11 10:34:00,35.2,34.5,29.97,ENE,68,23.0,23.0,97,0.00,,CLR,0.54,VWS V14.01,2013-04-11 14:34:00,
2013-04-11 10:39:00,35.1,34.3,29.97,ENE,68,23.0,23.0,97,0.00,,CLR,0.54,VWS V14.01,2013-04-11 14:39:00,
2013-04-11 10:44:00,35.1,34.3,29.97,ENE,68,23.0,23.0,97,0.00,,CLR,0.54,VWS V14.01,2013-04-11 14:44:00,
2013-04-11 10:49:00,35.2,34.7,29.94,ENE,68,23.0,23.0,98,0.00,,CLR,0.54,VWS V14.01,2013-04-11 14:49:00,
2013-04-11 10:54:00,35.2,34.7,29.94,ENE,68,23.0,23.0,98,0.00,,CLR,0.54,VWS V14.01,2013-04-11 14:54:00,
2013-04-11 10:59:00,35.1,34.5,29.94,ENE,68,23.0,23.0,98,0.00,,CLR,0.54,VWS V14.01,2013-04-11 14:59:00,
2013-04-11 11:00:00,35.2,34.7,29.94,ENE,68,23.0,23.0,98,0.00,,CLR,0.54,VWS V14.01,2013-04-11 15:00:00,
2013-04-11 11:04:00,35.2,34.7,29.94,ENE,68,23.0,23.0,98,0.00,,CLR,0.54,VWS V14.01,2013-04-11 15:04:00,
2013-04-11 11:09:00,35.2,34.7,29.94,ENE,68,13.2,13.2,98,0.00,,CLR,0.54,VWS V14.01,2013-04-11 15:09:00,
2013-04-11 11:14:00,35.4,34.9,29.97,ENE,68,13.2,13.2,98,0.00,,CLR,0.54,VWS V14.01,2013-04-11 15:14:00,
2013-04-11 11:19:00,35.4,34.9,29.97,ENE,68,13.2,13.2,98,0.00,,CLR,0.54,VWS V14.01,2013-04-11 15:19:00,
2013-04-11 11:24:00,35.6,35.1,29.97,ENE,68,13.2,13.2,98,0.00,,CLR,0.54,VWS V14.01,2013-04-11 15:24:00,
2013-04-11 11:29:00,35.6,35.1,29.97,ENE,68,13.2,13.2,98,0.00,,CLR,0.54,VWS V14.01,2013-04-11 15:29:00,
2013-04-11 11:34:00,35.8,35.3,29.97,ENE,68,13.2,13.2,98,0.00,,CLR,0.54,VWS V14.01,2013-04-11 15:34:00,
2013-04-11 11:39:00,35.8,35.3,29.97,ENE,68,13.2,13.2,98,0.00,,CLR,0.54,VWS V14.01,2013-04-11 15:39:00,
2013-04-11 11:44:00,35.8,35.0,30.00,ENE,68,13.2,13.2,97,0.00,,CLR,0.54,VWS V14.01,2013-04-11 15:44:00,
2013-04-11 11:49:00,36.1,35.4,30.00,ENE,68,13.2,13.2,97,0.00,,CLR,0.54,VWS V14.01,2013-04-11 15:49:00,
2013-04-11 11:54:00,36.1,35.4,30.00,ENE,68,13.2,13.2,97,0.00,,CLR,0.54,VWS V14.01,2013-04-11 15:54:00,
2013-04-11 11:59:00,36.1,35.1,29.94,ENE,68,13.2,13.2,96,0.00,,CLR,0.54,VWS V14.01,2013-04-11 15:59:00,
2013-04-11 12:04:00,36.1,35.1,29.94,ENE,68,13.2,13.2,96,0.05,,CLR,0.59,VWS V14.01,2013-04-11 16:04:00,
2013-04-11 12:09:00,36.1,34.8,29.94,ENE,68,13.2,13.2,95,0.05,,CLR,0.59,VWS V14.01,2013-04-11 16:09:00,
2013-04-11 12:14:00,36.1,34.8,29.97,ENE,68,13.2,13.2,95,0.05,,CLR,0.59,VWS V14.01,2013-04-11 16:14:00,
2013-04-11 12:19:00,36.3,34.8,29.97,ENE,68,13.2,13.2,94,0.05,,CLR,0.59,VWS V14.01,2013-04-11 16:19:00,
2013-04-11 12:24:00,36.3,34.8,29.97,ENE,68,13.2,13.2,94,0.05,,CLR,0.59,VWS V14.01,2013-04-11 16:24:00,
2013-04-11 12:29:00,36.3,34.5,29.97,ENE,68,13.2,13.2,93,0.05,,CLR,0.59,VWS V14.01,2013-04-11 16:29:00,
2013-04-11 12:36:00,36.3,34.8,29.97,ENE,68,13.2,13.2,94,0.05,,CLR,0.59,VWS V14.01,2013-04-11 16:36:00,
2013-04-11 12:41:00,36.3,34.5,29.97,ENE,68,13.2,13.2,93,0.05,,CLR,0.59,VWS V14.01,2013-04-11 16:41:00,
2013-04-11 12:46:00,36.1,34.0,29.94,ENE,68,13.2,13.2,92,0.05,,CLR,0.59,VWS V14.01,2013-04-11 16:46:00,
2013-04-11 12:51:00,36.1,33.8,29.94,ENE,68,13.2,13.2,91,0.05,,CLR,0.59,VWS V14.01,2013-04-11 16:51:00,
2013-04-11 12:57:00,36.1,33.5,29.94,ENE,68,13.2,13.2,90,0.05,,CLR,0.59,VWS V14.01,2013-04-11 16:57:00,
2013-04-11 13:00:00,36.1,33.5,29.94,ENE,68,13.2,13.2,90,0.05,,CLR,0.59,VWS V14.01,2013-04-11 17:00:00,
2013-04-11 13:02:00,36.1,33.5,29.94,ENE,68,13.2,13.2,90,0.05,,CLR,0.59,VWS V14.01,2013-04-11 17:02:00,
2013-04-11 13:07:00,36.1,33.5,29.94,ENE,68,13.2,13.2,90,0.00,,CLR,0.59,VWS V14.01,2013-04-11 17:07:00,
2013-04-11 13:12:00,36.1,33.5,29.94,ENE,68,13.2,13.2,90,0.00,,CLR,0.59,VWS V14.01,2013-04-11 17:12:00,
2013-04-11 13:17:00,36.1,33.5,29.94,ENE,68,13.2,13.2,90,0.00,,CLR,0.59,VWS V14.01,2013-04-11 17:17:00,
2013-04-11 13:22:00,36.3,34.0,29.94,ENE,68,13.2,13.2,91,0.00,,CLR,0.59,VWS V14.01,2013-04-11 17:22:00,
2013-04-11 13:27:00,36.3,33.7,29.94,ENE,68,13.2,13.2,90,0.00,,CLR,0.59,VWS V14.01,2013-04-11 17:27:00,
2013-04-11 13:33:00,36.3,33.7,29.91,ENE,68,13.2,13.2,90,0.00,,CLR,0.59,VWS V14.01,2013-04-11 17:33:00,
2013-04-11 13:38:00,36.3,34.0,29.91,ENE,68,13.2,13.2,91,0.00,,CLR,0.59,VWS V14.01,2013-04-11 17:38:00,
2013-04-11 13:43:00,36.3,34.0,29.91,ENE,68,13.2,13.2,91,0.00,,CLR,0.59,VWS V14.01,2013-04-11 17:43:00,
2013-04-11 13:48:00,36.1,33.5,29.94,ENE,68,13.2,13.2,90,0.00,,CLR,0.59,VWS V14.01,2013-04-11 17:48:00,
2013-04-11 13:53:00,36.3,34.0,29.94,ENE,68,13.2,13.2,91,0.00,,CLR,0.59,VWS V14.01,2013-04-11 17:53:00,
2013-04-11 13:58:00,36.3,33.4,29.94,ENE,68,13.2,13.2,89,0.00,,CLR,0.59,VWS V14.01,2013-04-11 17:58:00,
2013-04-11 14:00:00,36.1,33.2,29.91,ENE,68,13.2,13.2,89,0.00,,CLR,0.59,VWS V14.01,2013-04-11 18:00:00,
2013-04-11 14:03:00,36.1,33.2,29.91,ENE,68,13.2,13.2,89,0.00,,CLR,0.59,VWS V14.01,2013-04-11 18:03:00,
2013-04-11 14:08:00,36.3,33.4,29.91,ENE,68,13.2,13.2,89,0.00,,CLR,0.59,VWS V14.01,2013-04-11 18:08:00,
2013-04-11 14:14:00,36.1,33.2,29.91,ENE,68,13.2,13.2,89,0.00,,CLR,0.59,VWS V14.01,2013-04-11 18:14:00,
2013-04-11 14:19:00,36.1,32.7,29.91,ENE,68,13.2,13.2,87,0.00,,CLR,0.59,VWS V14.01,2013-04-11 18:19:00,
2013-04-11 14:24:00,36.1,32.7,29.91,ENE,68,13.2,13.2,87,0.00,,CLR,0.59,VWS V14.01,2013-04-11 18:24:00,
2013-04-11 14:29:00,36.3,33.1,29.91,ENE,68,13.2,13.2,88,0.00,,CLR,0.59,VWS V14.01,2013-04-11 18:29:00,
2013-04-11 14:34:00,36.1,32.7,29.91,ENE,68,13.2,13.2,87,0.00,,CLR,0.59,VWS V14.01,2013-04-11 18:34:00,
2013-04-11 14:39:00,36.1,32.9,29.91,ENE,68,13.2,13.2,88,0.00,,CLR,0.59,VWS V14.01,2013-04-11 18:39:00,
2013-04-11 14:44:00,36.0,33.0,29.91,ENE,68,13.2,13.2,89,0.00,,CLR,0.59,VWS V14.01,2013-04-11 18:44:00,
2013-04-11 14:49:00,36.0,33.0,29.91,ENE,68,13.2,13.2,89,0.00,,CLR,0.59,VWS V14.01,2013-04-11 18:49:00,
2013-04-11 14:55:00,35.8,32.9,29.91,ENE,68,13.2,13.2,89,0.00,,CLR,0.59,VWS V14.01,2013-04-11 18:55:00,
2013-04-11 15:00:00,36.0,32.8,29.91,ENE,68,13.2,13.2,88,0.00,,CLR,0.59,VWS V14.01,2013-04-11 19:00:00,
2013-04-11 15:05:00,36.0,33.0,29.91,ENE,68,13.2,13.2,89,0.00,,CLR,0.59,VWS V14.01,2013-04-11 19:05:00,
2013-04-11 15:10:00,36.0,33.0,29.91,ENE,68,13.2,13.2,89,0.00,,CLR,0.59,VWS V14.01,2013-04-11 19:10:00,
2013-04-11 15:15:00,36.0,33.0,29.91,ENE,68,13.2,13.2,89,0.00,,CLR,0.59,VWS V14.01,2013-04-11 19:15:00,
2013-04-11 15:20:00,36.1,33.2,29.88,ENE,68,13.2,13.2,89,0.00,,CLR,0.59,VWS V14.01,2013-04-11 19:20:00,
2013-04-11 15:26:00,36.1,32.9,29.88,ENE,68,13.2,13.2,88,0.00,,CLR,0.59,VWS V14.01,2013-04-11 19:26:00,
2013-04-11 15:31:00,36.1,32.7,29.88,ENE,68,13.2,13.2,87,0.00,,CLR,0.59,VWS V14.01,2013-04-11 19:31:00,
2013-04-11 15:36:00,36.1,32.7,29.88,ENE,68,13.2,13.2,87,0.00,,CLR,0.59,VWS V14.01,2013-04-11 19:36:00,
2013-04-11 15:41:00,36.1,32.9,29.88,ENE,68,5.8,13.2,88,0.00,,CLR,0.59,VWS V14.01,2013-04-11 19:41:00,
2013-04-11 15:47:00,36.1,32.9,29.88,East,90,15.2,15.2,88,0.00,,CLR,0.59,VWS V14.01,2013-04-11 19:47:00,
2013-04-11 15:52:00,36.1,32.9,29.88,East,90,15.2,15.2,88,0.00,,CLR,0.59,VWS V14.01,2013-04-11 19:52:00,
2013-04-11 15:58:00,36.1,32.9,29.88,East,90,15.2,15.2,88,0.00,,CLR,0.59,VWS V14.01,2013-04-11 19:58:00,
2013-04-11 16:00:00,36.1,32.9,29.88,East,90,15.2,15.2,88,0.00,,CLR,0.59,VWS V14.01,2013-04-11 20:00:00,
2013-04-11 16:03:00,36.1,32.9,29.88,East,90,15.2,15.2,88,0.00,,CLR,0.59,VWS V14.01,2013-04-11 20:03:00,
2013-04-11 16:08:00,36.1,33.2,29.88,East,90,17.2,17.2,89,0.00,,CLR,0.59,VWS V14.01,2013-04-11 20:08:00,
2013-04-11 16:14:00,36.0,33.0,29.88,ENE,68,17.7,17.7,89,0.00,,CLR,0.59,VWS V14.01,2013-04-11 20:14:00,
2013-04-11 16:19:00,36.0,33.0,29.85,ESE,112,13.0,17.7,89,0.00,,CLR,0.59,VWS V14.01,2013-04-11 20:19:00,
2013-04-11 16:24:00,35.8,32.9,29.85,ESE,112,13.0,17.7,89,0.00,,CLR,0.59,VWS V14.01,2013-04-11 20:24:00,
2013-04-11 16:29:00,35.8,32.9,29.85,ESE,112,13.0,17.7,89,0.00,,CLR,0.59,VWS V14.01,2013-04-11 20:29:00,
2013-04-11 16:34:00,35.8,32.9,29.85,ESE,112,13.0,17.7,89,0.00,,CLR,0.59,VWS V14.01,2013-04-11 20:34:00,
2013-04-11 16:39:00,35.8,33.1,29.85,ESE,112,13.0,17.7,90,0.00,,CLR,0.59,VWS V14.01,2013-04-11 20:39:00,
2013-04-11 16:45:00,35.6,33.2,29.85,ESE,112,13.0,17.7,91,0.00,,CLR,0.59,VWS V14.01,2013-04-11 20:45:00,
2013-04-11 16:50:00,35.6,33.2,29.85,ESE,112,13.0,17.7,91,0.00,,CLR,0.59,VWS V14.01,2013-04-11 20:50:00,
2013-04-11 16:55:00,35.6,33.8,29.85,ESE,112,13.0,17.7,93,0.00,,CLR,0.59,VWS V14.01,2013-04-11 20:55:00,
2013-04-11 17:00:00,35.6,34.0,29.85,ESE,112,13.0,17.7,94,0.00,,CLR,0.59,VWS V14.01,2013-04-11 21:00:00,
2013-04-11 17:05:00,35.6,34.0,29.85,ESE,112,13.0,13.0,94,0.00,,CLR,0.59,VWS V14.01,2013-04-11 21:05:00,
2013-04-11 17:11:00,35.6,34.0,29.85,ESE,112,13.0,13.0,94,0.00,,CLR,0.59,VWS V14.01,2013-04-11 21:11:00,
2013-04-11 17:16:00,35.6,33.8,29.85,ESE,112,13.0,13.0,93,0.00,,CLR,0.59,VWS V14.01,2013-04-11 21:16:00,
2013-04-11 17:21:00,35.8,33.4,29.85,ESE,112,13.0,13.0,91,0.00,,CLR,0.59,VWS V14.01,2013-04-11 21:21:00,
2013-04-11 17:26:00,35.8,33.1,29.85,East,90,13.9,13.9,90,0.00,,CLR,0.59,VWS V14.01,2013-04-11 21:26:00,
2013-04-11 17:31:00,35.6,32.7,29.85,ENE,68,12.5,13.9,89,0.00,,CLR,0.59,VWS V14.01,2013-04-11 21:31:00,
2013-04-11 17:36:00,35.6,32.7,29.85,ENE,68,12.5,13.9,89,0.00,,CLR,0.59,VWS V14.01,2013-04-11 21:36:00,
2013-04-11 17:42:00,35.6,32.7,29.85,ENE,68,12.5,13.9,89,0.00,,CLR,0.59,VWS V14.01,2013-04-11 21:42:00,
2013-04-11 17:47:00,35.6,32.7,29.82,ENE,68,9.8,13.9,89,0.00,,CLR,0.59,VWS V14.01,2013-04-11 21:47:00,
2013-04-11 17:52:00,35.6,32.7,29.82,ENE,68,9.8,13.9,89,0.00,,CLR,0.59,VWS V14.01,2013-04-11 21:52:00,
2013-04-11 17:57:00,35.4,32.8,29.82,ENE,68,9.8,13.9,90,0.00,,CLR,0.59,VWS V14.01,2013-04-11 21:57:00,
2013-04-11 18:00:00,35.4,33.1,29.82,ENE,68,9.8,13.9,91,0.00,,CLR,0.59,VWS V14.01,2013-04-11 22:00:00,
2013-04-11 18:02:00,35.4,33.1,29.82,ENE,68,9.8,13.9,91,0.00,,CLR,0.59,VWS V14.01,2013-04-11 22:02:00,
2013-04-11 18:07:00,35.4,33.1,29.82,ENE,68,9.8,9.8,91,0.00,,CLR,0.59,VWS V14.01,2013-04-11 22:07:00,
2013-04-11 18:12:00,35.4,33.3,29.82,ENE,68,9.8,9.8,92,0.00,,CLR,0.59,VWS V14.01,2013-04-11 22:12:00,
2013-04-11 18:17:00,35.4,33.3,29.85,ENE,68,9.8,9.8,92,0.00,,CLR,0.59,VWS V14.01,2013-04-11 22:17:00,
2013-04-11 18:23:00,35.4,33.6,29.85,ENE,68,9.8,9.8,93,0.00,,CLR,0.59,VWS V14.01,2013-04-11 22:23:00,
2013-04-11 18:28:00,35.4,33.6,29.85,ENE,68,9.8,9.8,93,0.00,,CLR,0.59,VWS V14.01,2013-04-11 22:28:00,
2013-04-11 18:33:00,35.4,33.3,29.82,ENE,68,9.8,9.8,92,0.00,,CLR,0.59,VWS V14.01,2013-04-11 22:33:00,
2013-04-11 18:38:00,35.4,33.3,29.82,ENE,68,9.8,9.8,92,0.00,,CLR,0.59,VWS V14.01,2013-04-11 22:38:00,
2013-04-11 18:44:00,35.4,33.3,29.82,ENE,68,9.8,9.8,92,0.00,,CLR,0.59,VWS V14.01,2013-04-11 22:44:00,
2013-04-11 18:49:00,35.4,33.3,29.85,ENE,68,9.8,9.8,92,0.00,,CLR,0.59,VWS V14.01,2013-04-11 22:49:00,
2013-04-11 18:54:00,35.4,33.3,29.85,ENE,68,9.8,9.8,92,0.00,,CLR,0.59,VWS V14.01,2013-04-11 22:54:00,
2013-04-11 18:59:00,35.6,33.2,29.85,ENE,68,9.8,9.8,91,0.00,,CLR,0.59,VWS V14.01,2013-04-11 22:59:00,
2013-04-11 19:00:00,35.6,33.2,29.85,East,90,11.0,11.0,91,0.00,,CLR,0.59,VWS V14.01,2013-04-11 23:00:00,
2013-04-11 19:05:00,35.6,33.2,29.85,East,90,11.0,11.0,91,0.00,,CLR,0.59,VWS V14.01,2013-04-11 23:05:00,
2013-04-11 19:10:00,35.6,33.2,29.85,East,90,14.3,14.3,91,0.00,,CLR,0.59,VWS V14.01,2013-04-11 23:10:00,
2013-04-11 19:15:00,35.6,33.2,29.85,ENE,68,13.6,14.3,91,0.00,,CLR,0.59,VWS V14.01,2013-04-11 23:15:00,
2013-04-11 19:20:00,35.6,33.5,29.82,ENE,68,13.6,14.3,92,0.00,,CLR,0.59,VWS V14.01,2013-04-11 23:20:00,
2013-04-11 19:25:00,35.4,33.6,29.82,ENE,68,13.6,14.3,93,0.00,,CLR,0.59,VWS V14.01,2013-04-11 23:25:00,
2013-04-11 19:30:00,35.4,33.9,29.82,East,90,8.1,14.3,94,0.00,,CLR,0.59,VWS V14.01,2013-04-11 23:30:00,
2013-04-11 19:35:00,35.4,33.9,29.82,East,90,8.1,14.3,94,0.00,,CLR,0.59,VWS V14.01,2013-04-11 23:35:00,
2013-04-11 19:41:00,35.4,34.1,29.82,East,90,8.1,14.3,95,0.00,,CLR,0.59,VWS V14.01,2013-04-11 23:41:00,
2013-04-11 19:46:00,35.4,34.1,29.82,East,90,8.1,14.3,95,0.00,,CLR,0.59,VWS V14.01,2013-04-11 23:46:00,
2013-04-11 19:51:00,35.4,34.4,29.79,East,90,8.1,14.3,96,0.00,,CLR,0.59,VWS V14.01,2013-04-11 23:51:00,
2013-04-11 19:57:00,35.4,34.7,29.79,East,90,8.1,14.3,97,0.00,,CLR,0.59,VWS V14.01,2013-04-11 23:57:00,
2013-04-11 20:00:00,35.2,34.5,29.80,East,90,8.1,14.3,97,0.00,,CLR,0.59,VWS V14.01,2013-04-12 00:00:00,
2013-04-11 20:02:00,35.2,34.5,29.79,East,90,8.1,14.3,97,0.00,,CLR,0.59,VWS V14.01,2013-04-12 00:02:00,
2013-04-11 20:07:00,35.2,34.7,29.79,ENE,68,10.5,16.1,98,0.00,,CLR,0.59,VWS V14.01,2013-04-12 00:07:00,
2013-04-11 20:12:00,35.2,34.7,29.79,ENE,68,10.5,16.1,98,0.00,,CLR,0.59,VWS V14.01,2013-04-12 00:12:00,
2013-04-11 20:17:00,35.2,34.7,29.76,ENE,68,10.5,16.1,98,0.00,,CLR,0.59,VWS V14.01,2013-04-12 00:17:00,
2013-04-11 20:22:00,35.2,34.7,29.76,ENE,68,10.5,16.1,98,0.00,,CLR,0.59,VWS V14.01,2013-04-12 00:22:00,
2013-04-11 20:28:00,35.2,34.7,29.76,ENE,68,10.5,16.1,98,0.00,,CLR,0.59,VWS V14.01,2013-04-12 00:28:00,
2013-04-11 20:33:00,35.2,34.7,29.76,ENE,68,10.5,16.1,98,0.00,,CLR,0.59,VWS V14.01,2013-04-12 00:33:00,
2013-04-11 20:38:00,35.2,34.7,29.76,ENE,68,10.5,16.1,98,0.00,,CLR,0.59,VWS V14.01,2013-04-12 00:38:00,
2013-04-11 20:43:00,35.2,34.7,29.76,ENE,68,10.5,16.1,98,0.00,,CLR,0.59,VWS V14.01,2013-04-12 00:43:00,
2013-04-11 20:48:00,35.4,34.9,29.79,ENE,68,10.5,16.1,98,0.00,,CLR,0.59,VWS V14.01,2013-04-12 00:48:00,
2013-04-11 20:53:00,35.4,34.9,29.79,ENE,68,10.5,16.1,98,0.00,,CLR,0.59,VWS V14.01,2013-04-12 00:53:00,
2013-04-11 20:58:00,35.4,34.9,29.79,ENE,68,10.5,16.1,98,0.00,,CLR,0.59,VWS V14.01,2013-04-12 00:58:00,
2013-04-11 21:00:00,35.4,34.7,29.76,ENE,68,10.5,16.1,97,0.00,,CLR,0.59,VWS V14.01,2013-04-12 01:00:00,
2013-04-11 21:03:00,35.4,34.7,29.76,ENE,68,10.5,10.5,97,0.00,,CLR,0.59,VWS V14.01,2013-04-12 01:03:00,
2013-04-11 21:08:00,35.4,34.4,29.76,ENE,68,10.5,10.5,96,0.00,,CLR,0.59,VWS V14.01,2013-04-12 01:08:00,
2013-04-11 21:14:00,35.4,34.4,29.76,ENE,68,10.5,10.5,96,0.00,,CLR,0.59,VWS V14.01,2013-04-12 01:14:00,
2013-04-11 21:19:00,35.4,34.4,29.76,ENE,68,10.5,10.5,96,0.00,,CLR,0.59,VWS V14.01,2013-04-12 01:19:00,
2013-04-11 21:24:00,35.4,34.4,29.76,ENE,68,10.5,10.5,96,0.00,,CLR,0.59,VWS V14.01,2013-04-12 01:24:00,
2013-04-11 21:29:00,35.4,34.4,29.76,ENE,68,10.5,10.5,96,0.00,,CLR,0.59,VWS V14.01,2013-04-12 01:29:00,
2013-04-11 21:34:00,35.4,34.4,29.79,ENE,68,10.5,10.5,96,0.00,,CLR,0.59,VWS V14.01,2013-04-12 01:34:00,
2013-04-11 21:39:00,35.4,34.4,29.79,ENE,68,10.5,10.5,96,0.00,,CLR,0.59,VWS V14.01,2013-04-12 01:39:00,
2013-04-11 21:44:00,35.4,34.7,29.79,East,90,14.3,14.3,97,0.00,,CLR,0.59,VWS V14.01,2013-04-12 01:44:00,
2013-04-11 21:49:00,35.4,34.4,29.76,ENE,68,12.5,14.3,96,0.00,,CLR,0.59,VWS V14.01,2013-04-12 01:49:00,
2013-04-11 21:55:00,35.4,34.4,29.76,East,90,10.5,14.3,96,0.03,,CLR,0.62,VWS V14.01,2013-04-12 01:55:00,
2013-04-11 22:00:00,35.4,34.4,29.76,East,90,10.5,14.3,96,0.03,,CLR,0.62,VWS V14.01,2013-04-12 02:00:00,
2013-04-11 22:05:00,35.4,34.4,29.76,East,90,10.5,10.5,96,0.03,,CLR,0.62,VWS V14.01,2013-04-12 02:05:00,
2013-04-11 22:10:00,35.4,34.1,29.76,East,90,10.5,10.5,95,0.03,,CLR,0.62,VWS V14.01,2013-04-12 02:10:00,
2013-04-11 22:15:00,35.2,34.0,29.76,East,90,13.0,13.0,95,0.03,,CLR,0.62,VWS V14.01,2013-04-12 02:15:00,
2013-04-11 22:20:00,35.2,34.0,29.74,ESE,112,12.8,13.0,95,0.03,,CLR,0.62,VWS V14.01,2013-04-12 02:20:00,
2013-04-11 22:25:00,35.2,33.7,29.74,East,90,12.8,13.0,94,0.03,,CLR,0.62,VWS V14.01,2013-04-12 02:25:00,
2013-04-11 22:30:00,35.2,33.7,29.74,East,90,12.8,13.0,94,0.03,,CLR,0.62,VWS V14.01,2013-04-12 02:30:00,
2013-04-11 22:36:00,35.2,33.7,29.74,East,90,12.8,13.0,94,0.03,,CLR,0.62,VWS V14.01,2013-04-12 02:36:00,
2013-04-11 22:41:00,35.2,33.7,29.74,East,90,12.8,13.0,94,0.03,,CLR,0.62,VWS V14.01,2013-04-12 02:41:00,
2013-04-11 22:46:00,35.1,33.2,29.74,East,90,12.8,13.0,93,0.03,,CLR,0.62,VWS V14.01,2013-04-12 02:46:00,
2013-04-11 22:51:00,35.1,33.2,29.74,East,90,10.5,13.0,93,0.03,,CLR,0.62,VWS V14.01,2013-04-12 02:51:00,
2013-04-11 22:56:00,35.1,33.0,29.74,East,90,10.5,13.0,92,0.03,,CLR,0.62,VWS V14.01,2013-04-12 02:56:00,
2013-04-11 23:00:00,35.1,32.7,29.74,East,90,10.5,13.0,91,0.03,,CLR,0.62,VWS V14.01,2013-04-12 03:00:00,
2013-04-11 23:02:00,35.1,32.7,29.74,East,90,10.5,13.0,91,0.03,,CLR,0.62,VWS V14.01,2013-04-12 03:02:00,
2013-04-11 23:07:00,35.1,32.7,29.74,ENE,68,13.0,13.0,91,0.00,,CLR,0.62,VWS V14.01,2013-04-12 03:07:00,
2013-04-11 23:12:00,35.1,32.7,29.74,ENE,68,12.1,13.0,91,0.00,,CLR,0.62,VWS V14.01,2013-04-12 03:12:00,
2013-04-11 23:17:00,35.1,32.4,29.74,East,90,11.2,13.0,90,0.00,,CLR,0.62,VWS V14.01,2013-04-12 03:17:00,
2013-04-11 23:23:00,35.1,32.4,29.74,ENE,68,9.8,13.0,90,0.00,,CLR,0.62,VWS V14.01,2013-04-12 03:23:00,
2013-04-11 23:28:00,35.1,32.7,29.74,ENE,68,9.8,13.0,91,0.00,,CLR,0.62,VWS V14.01,2013-04-12 03:28:00,
2013-04-11 23:33:00,35.1,32.7,29.74,ENE,68,9.8,13.0,91,0.00,,CLR,0.62,VWS V14.01,2013-04-12 03:33:00,
2013-04-11 23:38:00,35.1,32.7,29.74,ENE,68,9.8,13.0,91,0.00,,CLR,0.62,VWS V14.01,2013-04-12 03:38:00,
2013-04-11 23:43:00,35.1,33.0,29.74,ENE,68,9.8,13.0,92,0.00,,CLR,0.62,VWS V14.01,2013-04-12 03:43:00,
2013-04-11 23:48:00,35.1,33.0,29.74,ENE,68,9.8,13.0,92,0.00,,CLR,0.62,VWS V14.01,2013-04-12 03:48:00,
2013-04-11 23:53:00,35.1,33.2,29.74,ENE,68,9.8,13.0,93,0.00,,CLR,0.62,VWS V14.01,2013-04-12 03:53:00,
2013-04-11 23:58:00,35.1,33.8,29.74,ENE,68,9.8,13.0,95,0.05,,CLR,0.67,VWS V14.01,2013-04-12 03:58:00,